SCP
0 0 -0 -0 -0 -0 -0 -0 -0 -0 -0 -0 -0 -0 -0 -0 -0 -0 -0 -0 -0 -0 -0 -0 -0 -0 -0 -0 -0 -0 -0 -0 -0 -0 -0 -0 -0 -0 -0 -0 0 0 0
-0 0 -0 -0 -0 -0 -0 -0 -0 -0 -0 -0 -0 0 -0 -0 -0 -0 -0 -0 -0 -0 -0 -0 -0 -0 -0 -0 -0 -0 -0 -0 -0 -0 -0 0 0 0 0 0 -0 0 0
0 0 -0 -0 -0 -0 0 -0 0 0 -0 0 -0 -0 -0 -0 -0 -0 -0 -0 -0 -0 -0 -0 -0 -0 -0 -0 -0 -0 -0 -0 -0 0 0 0 0 0 -0 -0 0 0 0
0 0 0 0 0 -0 0 -0 -0 -0 -0 0 -0 -0 -0 -0 -0 -0 -0 -0 -0 -0 -0 -0 -0 -0 -0 -0 -0 -0 -0 -0 0 0 0 0 0 0 0 0 0 0 0
0 0 0 0 0 -0 -0 -0 -0 0 0 -0 -0 -0 -0 -0 -0 -0 -0 -0 -0 -0 -0 -0 -0 -0 -0 -0 -0 -0 -0 -0 0 0 0 0 0 0 0 0 0 0 0
0 0 0 0 0 0 0 0 0 0 -0 -0 -0 -0 -0 -0 -0 -0 -0 -0 -0 -0 -0 -0 -0 -0 -0 -0 -0 -0 0 0 0 0 0 0 0 0 0 0 0 0 0
0 0 0 0 0 0 0 0 -0 -0 -0 -0 -0 -0 -0 -0 -0 -0 -0 -0 -0 -0 -0 -0 -0 -0 -0 -0 -0 -0 0 0 0 0 0 0 0 0 0 0 0 0 0
-0 0 0 0 0 0 0 0 0 -0 -0 -0 -0 -0 -0 -0 -0 -0 -0 -0 -0 -0 -0 -0 -0 -0 -0 -0 0 0 0 0 0 0 0 0 0 0 0 0 0 0 0
0 0 0 0 0 0 0 0 0 -0 -0 -0 -0 -0 -0 -0 -0 -0 -0 -0 -0 -0 -0 -0 -0 -0 -0 -0 -0 0 0 0 0 0 0 0 0 0 0 0 0 0 0
0 0 0 0 0 0 0 0 0 0 0 0 -0 -0 -0 -0 -0 -0 -0 -0 -0 -0 -0 -0 0 0 0 -0 0 0 0 0 0 0 0 0 0 0 0 0 0 0 0
0 -0 0 0 0 0 0 0 0 0 0 -0 -0 0 0 0 0 -0 -0 -0 -0 -0 -0 0 0 0 0 0 0 0 0 0 0 0 0 0 0 0 0 0 0 0 0
0 -0 0 0 0 -0 0 0 0 0 0 0 0 0 0 0 0 -0 -0 -0 -0 -0 0 0 0 0 0 0 0 0 0 0 0 0 0 0 0 0 0 0 0 0 0
-0 0 0 0 0 0 0 0 0 0 0 0 0 0 0 0 0 -0 0 0 0 0 0 0 0 0 0 0 0 0 0 0 0 0 0 0 0 0 0 0 0 0 0
0 0 0 0 0 0 0 0 0 0 0 0 0 0 0 0 -0 -0 0 0 0 0 0 0 0 0 0 0 0 0 0 0 0 0 0 0 0 0 0 0 -0 -0 0
-0 0 0 0 0 0 0 0 0 0 0 0 0 0 0 0 0 0 0 0 0 0 0 0 0 0 0 0 0 0 0 0 0 0 0 0 0 0 0 0 0 0 0
-0 0 0 0 0 0 0 0 0 0 0 0 0 0 0 0 0 0 0 0 0 0 0 0 0 0 0 0 0 0 0 0 0 0 0 0 0 0 0 0 0 0 0
0 0 0 0 0 0 -0 0 0 0 0 0 0 0 0 0 0 0 0 0 0 0 0 0 0 0 0 0 0 0 0 0 0 0 0 0 0 0 0 0 0 0 0
0 0 0 0 0 0 0 0 0 0 0 0 0 0 0 0 0 0 0 0 0 0 0 0 0 0 0 0 0 0 0 0 0 0 0 0 0 0 0 0 0 0 0
0 0 0 0 0 0 0 0 0 0 0 0 0 0 0 0 0 0 0 0 0 0 0 0 0 0 0 0 0 -0 0 0 0 0 0 0 0 0 0 0 0 0 0
0 0 0 0 0 0 0 0 0 0 0 0 0 0 0 0 0 0 0 0 0 0 0 0 0 0 0 0 0 0 0 0 0 0 0 0 0 0 0 0 0 0 0
0 0 0 0 0 0 0 0 0 0 0 0 0 0 0 0 0 0 0 0 0 0 0 0 0 0 0 0 0 0 0 0 0 0 0 0 0 0 0 0 0 0 0
0 0 0 0 0 0 0 0 0 0 0 0 0 0 0 0 0 0 0 0 0 0 0 0 0 0 0 0 0 0 0 0 0 0 0 0 0 0 0 0 0 0 0
0 0 0 0 0 0 0 0 0 0 0 0 0 0 0 0 0 0 0 0 0 0 0 0 0 0 0 0 0 0 0 0 0 0 0 0 0 0 0 0 0 0 0
0 0 0 0 0 0 0 0 0 0 0 0 0 0 0 0 0 0 0 0 0 0 0 0 0 0 0 0 0 0 0 0 0 0 0 0 0 0 0 0 0 0 0
0 0 0 0 0 0 0 0 0 0 0 0 0 0 0 0 0 0 0 0 0 0 0 0 0 0 0 0 0 0 0 0 0 0 0 0 0 -0 0 0 0 0 0
0 0 0 0 0 0 0 0 0 0 0 0 0 0 0 0 0 0 0 0 0 0 0 0 0 0 0 0 0 0 0 0 0 0 0 0 0 -0 0 0 0 0 0
Wind_Speed_500mb
34 32 27 23 18 16 16 17 20 19 19 25 27 27 24 22 20 22 28 32 35 32 35 36 31 25 25 23 23 22 21 20 15 20 23 30 36 27 25 27 27 28 29
36 31 29 25 20 19 21 21 21 18 21 23 24 24 20 17 20 32 38 34 34 33 36 34 30 30 29 28 27 26 26 25 25 27 26 27 31 30 32 35 34 34 29
36 33 30 21 20 22 21 21 23 25 28 28 28 25 23 23 25 40 35 32 33 35 35 34 32 33 33 33 32 31 26 22 22 21 20 26 34 32 32 27 25 30 35
36 34 24 20 21 23 25 26 28 28 32 31 31 36 31 31 38 39 33 30 31 32 29 36 33 33 32 34 35 33 31 27 22 19 20 23 31 30 27 25 26 32 30
34 28 28 21 21 22 25 29 30 23 27 30 31 38 32 32 34 32 30 30 31 28 30 33 30 32 34 36 36 35 32 33 32 31 30 30 34 29 29 29 28 21 21
35 31 27 22 21 19 21 24 34 28 23 29 31 37 35 26 27 25 25 29 28 28 32 32 30 31 33 34 36 38 36 32 29 28 29 28 29 27 29 29 31 26 30
38 30 26 24 23 20 19 22 25 27 23 26 29 32 29 27 27 24 26 27 28 28 29 29 29 31 32 33 33 35 36 34 33 31 29 28 29 30 31 31 32 32 31
32 32 28 25 23 20 18 21 23 24 23 23 28 29 28 22 24 24 25 25 25 26 27 29 29 28 29 31 33 32 34 34 34 36 36 34 33 32 31 30 30 31 30
32 29 31 31 24 19 20 22 23 25 22 21 24 28 30 25 24 25 26 24 24 24 26 27 27 26 27 29 32 31 31 33 33 35 35 35 35 35 35 34 32 32 31
34 32 29 31 28 22 21 22 25 24 23 23 23 24 24 23 23 24 24 24 22 22 23 24 26 26 27 27 28 29 30 31 32 32 32 33 33 33 32 32 32 32 32
35 32 28 32 30 24 23 24 24 25 24 23 22 20 20 19 19 20 21 23 22 21 21 21 23 23 24 24 25 26 27 28 29 29 29 29 30 32 34 34 34 33 33
41 36 31 34 32 27 24 25 23 23 21 20 19 20 18 16 16 17 18 19 19 18 17 17 18 19 21 22 23 23 23 24 26 27 28 29 29 30 32 34 34 34 39
41 37 36 36 34 27 25 24 22 21 20 20 19 18 16 14 13 13 13 13 13 13 12 13 13 15 15 17 19 20 22 23 23 25 28 30 31 33 36 36 38 39 37
46 41 40 39 37 31 27 25 23 21 18 16 17 16 14 13 11 10 9 9 9 8 8 10 11 13 13 14 17 20 23 25 27 28 30 31 32 34 36 36 38 40 40
46 45 42 40 39 34 29 27 24 21 21 19 15 12 12 11 10 8 7 4 3 5 7 8 9 10 11 14 19 23 25 26 28 32 32 33 35 38 37 38 38 41 42
43 46 45 41 39 38 34 29 25 24 22 20 17 15 13 11 10 6 3 1 2 4 6 7 9 11 13 18 21 24 26 28 32 34 36 35 34 36 34 32 35 42 41
44 41 43 41 38 36 33 30 29 26 24 21 20 20 19 15 13 9 6 3 3 4 6 8 11 16 19 22 25 29 30 30 32 34 36 34 33 30 28 37 40 41 44
45 44 40 40 39 37 34 32 30 28 25 24 23 21 12 9 7 9 7 3 2 4 7 9 14 17 22 28 31 34 35 33 34 36 35 31 29 26 33 39 40 43 42
44 43 44 41 39 36 33 31 28 28 27 24 20 18 14 12 10 7 4 4 6 10 14 15 20 23 26 30 32 35 35 33 32 26 23 25 27 34 34 31 37 43 45
48 45 44 43 41 39 36 35 33 28 24 24 21 20 19 17 14 14 10 11 13 16 20 23 25 25 28 33 36 32 28 15 20 14 19 26 34 24 38 41 50 44 45
56 53 50 48 43 45 46 45 41 39 35 32 29 25 24 22 19 16 16 16 18 20 23 25 24 24 25 28 32 36 23 26 15 30 22 32 34 36 43 54 48 49 46
61 61 59 55 50 47 48 44 43 39 41 35 31 23 27 25 25 23 23 23 24 25 25 26 24 21 20 25 30 33 26 23 28 26 43 23 47 43 54 47 42 51 53
72 70 66 63 59 55 51 49 48 46 42 39 37 30 36 34 32 30 30 30 30 28 28 28 22 18 23 28 31 15 8 8 42 37 26 47 46 56 46 48 58 57 47
73 72 69 66 65 62 60 61 58 50 50 45 43 40 35 38 37 36 35 34 33 32 30 25 22 20 23 28 21 21 23 25 17 22 38 40 55 54 57 49 51 46 47
66 70 69 70 70 68 66 66 63 62 52 49 50 48 39 40 40 38 38 35 32 30 25 22 21 24 21 16 18 20 25 30 30 35 40 56 61 51 37 41 35 47 51
68 70 72 75 74 72 70 70 69 68 63 59 56 52 43 41 42 41 39 35 29 29 25 23 23 18 14 16 20 25 27 28 34 36 48 59 61 52 36 50 34 50 66
Wind_Direction_500mb
146 142 134 128 127 117 109 95 99 106 116 126 133 129 122 107 88 72 77 83 83 89 79 79 80 79 75 69 69 68 66 67 69 72 73 76 69 64 60 61 63 62 64
147 144 137 130 110 108 102 97 104 114 117 127 141 134 130 113 95 91 86 84 88 78 82 79 76 75 70 67 65 64 67 67 63 59 57 70 64 66 55 65 64 61 61
150 145 140 129 115 101 98 99 103 103 102 112 125 123 121 115 106 99 99 98 77 85 77 79 72 68 64 60 59 62 68 72 65 62 63 64 61 64 65 58 53 62 46
155 148 144 132 116 110 105 106 100 98 93 105 104 98 102 107 103 102 103 94 93 80 77 75 66 66 67 64 61 62 63 64 65 62 60 65 65 56 54 56 52 65 66
156 153 141 138 120 107 108 108 105 108 92 103 106 105 102 100 100 104 96 94 94 88 77 71 65 63 61 57 54 54 58 64 61 59 52 57 63 52 53 42 47 60 67
153 150 149 145 132 113 108 113 119 113 98 106 109 110 111 107 96 86 76 78 78 77 69 65 62 63 62 57 57 56 59 62 56 55 53 56 61 50 41 40 40 38 37
152 155 156 151 142 123 118 122 127 126 113 108 114 119 107 96 89 90 84 78 76 71 70 68 66 65 63 59 60 59 60 59 57 57 58 55 51 43 39 38 36 33 29
160 159 162 157 153 134 127 124 124 128 128 107 110 113 114 99 91 85 83 82 79 75 68 65 64 64 63 59 57 58 57 57 56 56 55 51 49 46 42 38 34 29 25
165 167 166 157 161 145 130 125 123 128 134 118 107 115 113 103 88 84 87 86 79 73 67 64 65 65 62 59 57 56 55 53 54 53 52 50 46 43 38 34 31 27 24
167 166 169 167 168 156 138 129 125 129 128 129 128 120 116 102 92 89 90 87 83 75 70 66 64 65 62 60 59 59 57 55 52 50 46 40 36 34 28 23 18 14 11
172 171 173 176 172 160 149 144 142 137 133 135 130 121 116 112 102 96 89 84 83 78 69 63 61 61 63 62 59 57 54 50 46 41 35 29 23 18 13 8 4 0 357
178 175 183 182 177 169 164 157 148 138 139 130 130 128 126 116 104 97 89 84 82 83 78 66 56 52 52 53 52 49 42 36 32 29 22 15 9 4 359 355 351 343 340
179 183 187 185 179 180 173 164 157 155 150 148 141 133 123 113 111 104 97 91 83 77 72 65 59 55 54 50 43 33 24 18 17 15 6 360 355 352 347 340 337 336 333
181 184 189 187 182 182 180 177 174 168 164 162 153 143 135 130 123 119 112 96 83 71 61 54 51 49 50 40 35 26 13 4 358 351 349 348 345 340 335 334 330 327 326
186 186 188 188 188 188 189 187 185 185 185 181 170 165 159 158 156 150 135 116 78 43 30 25 27 32 28 17 5 356 354 349 345 345 342 337 333 332 330 326 324 324 321
195 192 189 190 192 195 196 198 198 200 201 197 191 191 193 187 192 190 184 196 5 13 14 10 13 17 10 354 344 342 334 336 333 329 328 329 328 327 326 327 325 326 320
198 203 197 194 197 201 203 204 207 209 213 211 211 209 207 206 213 219 228 256 300 345 1 13 11 345 344 336 334 326 323 322 322 323 324 323 326 325 326 331 329 331 326
203 204 209 205 205 207 206 210 212 215 218 223 225 239 216 221 242 245 229 248 330 7 4 354 330 323 322 320 315 313 316 317 315 315 319 323 324 333 327 333 337 333 330
209 211 211 215 214 218 214 216 224 225 224 232 224 224 231 240 255 260 259 280 301 318 318 315 315 313 313 305 309 313 321 323 320 324 328 339 328 327 341 341 340 330 329
219 220 221 220 222 223 225 224 221 220 224 223 229 239 245 244 258 261 258 270 279 291 293 304 309 313 316 318 315 326 338 344 346 14 341 340 341 358 343 344 337 341 333
220 224 224 224 223 223 222 219 220 225 231 232 239 246 244 250 257 260 252 266 273 284 287 297 303 311 313 314 329 340 4 0 30 351 5 345 357 348 348 342 347 341 341
221 224 226 228 227 227 229 229 229 231 236 241 246 253 254 252 254 256 262 269 276 281 286 295 299 306 310 312 325 334 347 357 348 346 348 354 345 345 345 350 351 347 348
222 223 225 227 228 228 231 232 233 230 231 236 240 241 245 250 253 256 261 267 271 273 282 287 286 294 298 306 315 324 333 308 332 340 340 336 343 348 350 353 351 349 353
225 226 227 228 230 229 233 236 236 240 239 238 240 244 248 247 250 252 255 263 268 273 275 271 265 274 285 304 317 333 335 326 322 326 329 335 344 349 353 351 352 356 355
228 228 228 229 230 232 235 238 238 241 238 241 242 241 250 247 248 252 257 259 262 264 255 248 252 267 286 300 317 324 331 332 331 327 326 333 342 357 358 354 4 355 347
231 229 229 230 230 233 237 238 234 235 238 234 239 241 246 252 252 249 252 254 254 243 239 242 259 261 281 304 317 327 330 332 327 333 331 335 340 358 352 353 350 350 342
Wind_Speed_850mb
34 32 27 23 18 16 16 17 20 19 19 25 27 27 24 22 20 22 28 32 35 32 35 36 31 25 25 23 23 22 21 20 15 20 23 30 36 27 25 27 27 28 29
36 31 29 25 20 19 21 21 21 18 21 23 24 24 20 17 20 32 38 34 34 33 36 34 30 30 29 28 27 26 26 25 25 27 26 27 31 30 32 35 34 34 29
36 33 30 21 20 22 21 21 23 25 28 28 28 25 23 23 25 40 35 32 33 35 35 34 32 33 33 33 32 31 26 22 22 21 20 26 34 32 32 27 25 30 35
36 34 24 20 21 23 25 26 28 28 32 31 31 36 31 31 38 39 33 30 31 32 29 36 33 33 32 34 35 33 31 27 22 19 20 23 31 30 27 25 26 32 30
34 28 28 21 21 22 25 29 30 23 27 30 31 38 32 32 34 32 30 30 31 28 30 33 30 32 34 36 36 35 32 33 32 31 30 30 34 29 29 29 28 21 21
35 31 27 22 21 19 21 24 34 28 23 29 31 37 35 26 27 25 25 29 28 28 32 32 30 31 33 34 36 38 36 32 29 28 29 28 29 27 29 29 31 26 30
38 30 26 24 23 20 19 22 25 27 23 26 29 32 29 27 27 24 26 27 28 28 29 29 29 31 32 33 33 35 36 34 33 31 29 28 29 30 31 31 32 32 31
32 32 28 25 23 20 18 21 23 24 23 23 28 29 28 22 24 24 25 25 25 26 27 29 29 28 29 31 33 32 34 34 34 36 36 34 33 32 31 30 30 31 30
32 29 31 31 24 19 20 22 23 25 22 21 24 28 30 25 24 25 26 24 24 24 26 27 27 26 27 29 32 31 31 33 33 35 35 35 35 35 35 34 32 32 31
34 32 29 31 28 22 21 22 25 24 23 23 23 24 24 23 23 24 24 24 22 22 23 24 26 26 27 27 28 29 30 31 32 32 32 33 33 33 32 32 32 32 32
35 32 28 32 30 24 23 24 24 25 24 23 22 20 20 19 19 20 21 23 22 21 21 21 23 23 24 24 25 26 27 28 29 29 29 29 30 32 34 34 34 33 33
41 36 31 34 32 27 24 25 23 23 21 20 19 20 18 16 16 17 18 19 19 18 17 17 18 19 21 22 23 23 23 24 26 27 28 29 29 30 32 34 34 34 39
41 37 36 36 34 27 25 24 22 21 20 20 19 18 16 14 13 13 13 13 13 13 12 13 13 15 15 17 19 20 22 23 23 25 28 30 31 33 36 36 38 39 37
46 41 40 39 37 31 27 25 23 21 18 16 17 16 14 13 11 10 9 9 9 8 8 10 11 13 13 14 17 20 23 25 27 28 30 31 32 34 36 36 38 40 40
46 45 42 40 39 34 29 27 24 21 21 19 15 12 12 11 10 8 7 4 3 5 7 8 9 10 11 14 19 23 25 26 28 32 32 33 35 38 37 38 38 41 42
43 46 45 41 39 38 34 29 25 24 22 20 17 15 13 11 10 6 3 1 2 4 6 7 9 11 13 18 21 24 26 28 32 34 36 35 34 36 34 32 35 42 41
44 41 43 41 38 36 33 30 29 26 24 21 20 20 19 15 13 9 6 3 3 4 6 8 11 16 19 22 25 29 30 30 32 34 36 34 33 30 28 37 40 41 44
45 44 40 40 39 37 34 32 30 28 25 24 23 21 12 9 7 9 7 3 2 4 7 9 14 17 22 28 31 34 35 33 34 36 35 31 29 26 33 39 40 43 42
44 43 44 41 39 36 33 31 28 28 27 24 20 18 14 12 10 7 4 4 6 10 14 15 20 23 26 30 32 35 35 33 32 26 23 25 27 34 34 31 37 43 45
48 45 44 43 41 39 36 35 33 28 24 24 21 20 19 17 14 14 10 11 13 16 20 23 25 25 28 33 36 32 28 15 20 14 19 26 34 24 38 41 50 44 45
56 53 50 48 43 45 46 45 41 39 35 32 29 25 24 22 19 16 16 16 18 20 23 25 24 24 25 28 32 36 23 26 15 30 22 32 34 36 43 54 48 49 46
61 61 59 55 50 47 48 44 43 39 41 35 31 23 27 25 25 23 23 23 24 25 25 26 24 21 20 25 30 33 26 23 28 26 43 23 47 43 54 47 42 51 53
72 70 66 63 59 55 51 49 48 46 42 39 37 30 36 34 32 30 30 30 30 28 28 28 22 18 23 28 31 15 8 8 42 37 26 47 46 56 46 48 58 57 47
73 72 69 66 65 62 60 61 58 50 50 45 43 40 35 38 37 36 35 34 33 32 30 25 22 20 23 28 21 21 23 25 17 22 38 40 55 54 57 49 51 46 47
66 70 69 70 70 68 66 66 63 62 52 49 50 48 39 40 40 38 38 35 32 30 25 22 21 24 21 16 18 20 25 30 30 35 40 56 61 51 37 41 35 47 51
68 70 72 75 74 72 70 70 69 68 63 59 56 52 43 41 42 41 39 35 29 29 25 23 23 18 14 16 20 25 27 28 34 36 48 59 61 52 36 50 34 50 66
Wind_Direction_850mb
146 142 134 128 127 117 109 95 99 106 116 126 133 129 122 107 88 72 77 83 83 89 79 79 80 79 75 69 69 68 66 67 69 72 73 76 69 64 60 61 63 62 64
147 144 137 130 110 108 102 97 104 114 117 127 141 134 130 113 95 91 86 84 88 78 82 79 76 75 70 67 65 64 67 67 63 59 57 70 64 66 55 65 64 61 61
150 145 140 129 115 101 98 99 103 103 102 112 125 123 121 115 106 99 99 98 77 85 77 79 72 68 64 60 59 62 68 72 65 62 63 64 61 64 65 58 53 62 46
155 148 144 132 116 110 105 106 100 98 93 105 104 98 102 107 103 102 103 94 93 80 77 75 66 66 67 64 61 62 63 64 65 62 60 65 65 56 54 56 52 65 66
156 153 141 138 120 107 108 108 105 108 92 103 106 105 102 100 100 104 96 94 94 88 77 71 65 63 61 57 54 54 58 64 61 59 52 57 63 52 53 42 47 60 67
153 150 149 145 132 113 108 113 119 113 98 106 109 110 111 107 96 86 76 78 78 77 69 65 62 63 62 57 57 56 59 62 56 55 53 56 61 50 41 40 40 38 37
152 155 156 151 142 123 118 122 127 126 113 108 114 119 107 96 89 90 84 78 76 71 70 68 66 65 63 59 60 59 60 59 57 57 58 55 51 43 39 38 36 33 29
160 159 162 157 153 134 127 124 124 128 128 107 110 113 114 99 91 85 83 82 79 75 68 65 64 64 63 59 57 58 57 57 56 56 55 51 49 46 42 38 34 29 25
165 167 166 157 161 145 130 125 123 128 134 118 107 115 113 103 88 84 87 86 79 73 67 64 65 65 62 59 57 56 55 53 54 53 52 50 46 43 38 34 31 27 24
167 166 169 167 168 156 138 129 125 129 128 129 128 120 116 102 92 89 90 87 83 75 70 66 64 65 62 60 59 59 57 55 52 50 46 40 36 34 28 23 18 14 11
172 171 173 176 172 160 149 144 142 137 133 135 130 121 116 112 102 96 89 84 83 78 69 63 61 61 63 62 59 57 54 50 46 41 35 29 23 18 13 8 4 0 357
178 175 183 182 177 169 164 157 148 138 139 130 130 128 126 116 104 97 89 84 82 83 78 66 56 52 52 53 52 49 42 36 32 29 22 15 9 4 359 355 351 343 340
179 183 187 185 179 180 173 164 157 155 150 148 141 133 123 113 111 104 97 91 83 77 72 65 59 55 54 50 43 33 24 18 17 15 6 360 355 352 347 340 337 336 333
181 184 189 187 182 182 180 177 174 168 164 162 153 143 135 130 123 119 112 96 83 71 61 54 51 49 50 40 35 26 13 4 358 351 349 348 345 340 335 334 330 327 326
186 186 188 188 188 188 189 187 185 185 185 181 170 165 159 158 156 150 135 116 78 43 30 25 27 32 28 17 5 356 354 349 345 345 342 337 333 332 330 326 324 324 321
195 192 189 190 192 195 196 198 198 200 201 197 191 191 193 187 192 190 184 196 5 13 14 10 13 17 10 354 344 342 334 336 333 329 328 329 328 327 326 327 325 326 320
198 203 197 194 197 201 203 204 207 209 213 211 211 209 207 206 213 219 228 256 300 345 1 13 11 345 344 336 334 326 323 322 322 323 324 323 326 325 326 331 329 331 326
203 204 209 205 205 207 206 210 212 215 218 223 225 239 216 221 242 245 229 248 330 7 4 354 330 323 322 320 315 313 316 317 315 315 319 323 324 333 327 333 337 333 330
209 211 211 215 214 218 214 216 224 225 224 232 224 224 231 240 255 260 259 280 301 318 318 315 315 313 313 305 309 313 321 323 320 324 328 339 328 327 341 341 340 330 329
219 220 221 220 222 223 225 224 221 220 224 223 229 239 245 244 258 261 258 270 279 291 293 304 309 313 316 318 315 326 338 344 346 14 341 340 341 358 343 344 337 341 333
220 224 224 224 223 223 222 219 220 225 231 232 239 246 244 250 257 260 252 266 273 284 287 297 303 311 313 314 329 340 4 0 30 351 5 345 357 348 348 342 347 341 341
221 224 226 228 227 227 229 229 229 231 236 241 246 253 254 252 254 256 262 269 276 281 286 295 299 306 310 312 325 334 347 357 348 346 348 354 345 345 345 350 351 347 348
222 223 225 227 228 228 231 232 233 230 231 236 240 241 245 250 253 256 261 267 271 273 282 287 286 294 298 306 315 324 333 308 332 340 340 336 343 348 350 353 351 349 353
225 226 227 228 230 229 233 236 236 240 239 238 240 244 248 247 250 252 255 263 268 273 275 271 265 274 285 304 317 333 335 326 322 326 329 335 344 349 353 351 352 356 355
228 228 228 229 230 232 235 238 238 241 238 241 242 241 250 247 248 252 257 259 262 264 255 248 252 267 286 300 317 324 331 332 331 327 326 333 342 357 358 354 4 355 347
231 229 229 230 230 233 237 238 234 235 238 234 239 241 246 252 252 249 252 254 254 243 239 242 259 261 281 304 317 327 330 332 327 333 331 335 340 358 352 353 350 350 342